Location: Malmö
(55.6090°N, 13.0007°E)
Time: 07:56:57
(UTC+01:00)

ISS - Pass Details

Date: 30 January 2021
Orbit: 417 x 422 km, 51.6° (Epoch: 04 March)

Event Time Altitude Azimuth Distance (km) Brightness Sun altitude
Rises 18:49:08 0° 270° (W) 2,377 1.8 -18.2°
Reaches altitude 10° 18:51:21 10° 261° (W) 1,511 0.3 -18.5°
Maximum altitude 18:54:26 33° 196° (SSW) 738 -2.4 -19.0°
Enters shadow 18:55:15 29° 165° (SSE) 817 -2.4 -19.1°
